Time,TemperatureF,DewpointF,PressureIn,WindDirection,WindDirectionDegrees,WindSpeedMPH,WindSpeedGustMPH,Humidity,HourlyPrecipIn,Conditions,Clouds,dailyrainin,SoftwareType,DateUTC
2013-04-25 00:04:00,41.9,33.9,30.09,WNW,292,0.0,0.0,73,0.00,,---,0.00,VWS V14.01,2013-04-25 07:04:00,
2013-04-25 00:09:00,41.5,33.5,30.09,WNW,292,0.0,0.0,73,0.00,,---,0.00,VWS V14.01,2013-04-25 07:09:00,
2013-04-25 00:14:00,41.5,33.2,30.09,WNW,292,0.0,0.0,72,0.00,,---,0.00,VWS V14.01,2013-04-25 07:14:00,
2013-04-25 00:19:00,41.2,33.2,30.09,WNW,292,0.0,0.0,73,0.00,,---,0.00,VWS V14.01,2013-04-25 07:19:00,
2013-04-25 00:25:00,41.0,33.4,30.09,WNW,292,0.0,0.0,74,0.00,,---,0.00,VWS V14.01,2013-04-25 07:25:00,
2013-04-25 00:30:00,41.0,33.0,30.09,WNW,292,0.0,0.0,73,0.00,,---,0.00,VWS V14.01,2013-04-25 07:30:00,
2013-04-25 00:35:00,41.0,33.4,30.09,WNW,292,0.0,0.0,74,0.00,,---,0.00,VWS V14.01,2013-04-25 07:35:00,
2013-04-25 00:40:00,40.6,33.3,30.09,WNW,292,0.0,0.0,75,0.00,,---,0.00,VWS V14.01,2013-04-25 07:40:00,
2013-04-25 00:45:00,40.8,33.5,30.09,WNW,292,0.0,0.0,75,0.00,,---,0.00,VWS V14.01,2013-04-25 07:45:00,
2013-04-25 00:50:00,40.5,33.5,30.09,WNW,292,0.0,0.0,76,0.00,,---,0.00,VWS V14.01,2013-04-25 07:50:00,
2013-04-25 00:55:00,40.5,33.5,30.09,WNW,292,0.0,0.0,76,0.00,,---,0.00,VWS V14.01,2013-04-25 07:55:00,
2013-04-25 01:00:00,40.3,33.7,30.09,WNW,292,0.0,0.0,77,0.00,,---,0.00,VWS V14.01,2013-04-25 08:00:00,
2013-04-25 01:05:00,40.3,33.3,30.09,WNW,292,0.0,0.0,76,0.00,,---,0.00,VWS V14.01,2013-04-25 08:05:00,
2013-04-25 01:10:00,40.3,33.3,30.09,WNW,292,0.0,0.0,76,0.00,,---,0.00,VWS V14.01,2013-04-25 08:10:00,
2013-04-25 01:15:00,40.1,33.5,30.09,WNW,292,0.0,0.0,77,0.00,,---,0.00,VWS V14.01,2013-04-25 08:15:00,
2013-04-25 01:20:00,39.9,33.6,30.12,WNW,292,0.0,0.0,78,0.00,,---,0.00,VWS V14.01,2013-04-25 08:20:00,
2013-04-25 01:25:00,39.7,33.5,30.12,WNW,292,0.0,0.0,78,0.00,,---,0.00,VWS V14.01,2013-04-25 08:25:00,
2013-04-25 01:30:00,39.6,33.3,30.12,WNW,292,0.0,0.0,78,0.00,,---,0.00,VWS V14.01,2013-04-25 08:30:00,
2013-04-25 01:35:00,39.4,33.1,30.12,WNW,292,0.0,0.0,78,0.00,,---,0.00,VWS V14.01,2013-04-25 08:35:00,
2013-04-25 01:40:00,39.4,33.4,30.12,WNW,292,0.0,0.0,79,0.00,,---,0.00,VWS V14.01,2013-04-25 08:40:00,
2013-04-25 01:45:00,39.2,33.2,30.12,WNW,292,0.0,0.0,79,0.00,,---,0.00,VWS V14.01,2013-04-25 08:45:00,
2013-04-25 01:50:00,39.2,33.2,30.12,WNW,292,0.0,0.0,79,0.00,,---,0.00,VWS V14.01,2013-04-25 08:50:00,
2013-04-25 01:55:00,39.2,33.6,30.12,WNW,292,0.0,0.0,80,0.00,,---,0.00,VWS V14.01,2013-04-25 08:55:00,
2013-04-25 02:00:00,39.2,33.6,30.12,WNW,292,0.0,0.0,80,0.00,,---,0.00,VWS V14.01,2013-04-25 09:00:00,
2013-04-25 02:05:00,39.0,33.7,30.09,WNW,292,0.0,0.0,81,0.00,,---,0.00,VWS V14.01,2013-04-25 09:05:00,
2013-04-25 02:10:00,38.8,33.2,30.09,WNW,292,0.0,0.0,80,0.00,,---,0.00,VWS V14.01,2013-04-25 09:10:00,
2013-04-25 02:15:00,38.8,33.5,30.09,WNW,292,0.0,0.0,81,0.00,,---,0.00,VWS V14.01,2013-04-25 09:15:00,
2013-04-25 02:20:00,38.8,33.8,30.09,WNW,292,0.0,0.0,82,0.00,,---,0.00,VWS V14.01,2013-04-25 09:20:00,
2013-04-25 02:25:00,38.7,33.7,30.09,WNW,292,0.0,0.0,82,0.00,,---,0.00,VWS V14.01,2013-04-25 09:25:00,
2013-04-25 02:31:00,38.3,33.3,30.09,WNW,292,0.0,0.0,82,0.00,,---,0.00,VWS V14.01,2013-04-25 09:31:00,
2013-04-25 02:36:00,38.1,33.1,30.09,WNW,292,0.0,0.0,82,0.00,,---,0.00,VWS V14.01,2013-04-25 09:36:00,
2013-04-25 02:41:00,38.1,32.8,30.09,WNW,292,0.0,0.0,81,0.00,,---,0.00,VWS V14.01,2013-04-25 09:41:00,
2013-04-25 02:46:00,38.1,33.1,30.09,WNW,292,0.0,0.0,82,0.00,,---,0.00,VWS V14.01,2013-04-25 09:46:00,
2013-04-25 02:51:00,37.9,33.2,30.09,WNW,292,0.0,0.0,83,0.00,,---,0.00,VWS V14.01,2013-04-25 09:51:00,
2013-04-25 02:56:00,37.8,33.1,30.09,WNW,292,0.0,0.0,83,0.00,,---,0.00,VWS V14.01,2013-04-25 09:56:00,
2013-04-25 03:01:00,37.6,32.9,30.09,WNW,292,0.0,0.0,83,0.00,,---,0.00,VWS V14.01,2013-04-25 10:01:00,
2013-04-25 03:06:00,37.8,33.1,30.09,WNW,292,0.0,0.0,83,0.00,,---,0.00,VWS V14.01,2013-04-25 10:06:00,
2013-04-25 03:11:00,37.6,33.2,30.09,WNW,292,0.0,0.0,84,0.00,,---,0.00,VWS V14.01,2013-04-25 10:11:00,
2013-04-25 03:16:00,37.4,33.0,30.09,WNW,292,0.0,0.0,84,0.00,,---,0.00,VWS V14.01,2013-04-25 10:16:00,
2013-04-25 03:21:00,37.0,33.0,30.09,WNW,292,0.0,0.0,85,0.00,,---,0.00,VWS V14.01,2013-04-25 10:21:00,
2013-04-25 03:26:00,37.0,33.0,30.09,WNW,292,0.0,0.0,85,0.00,,---,0.00,VWS V14.01,2013-04-25 10:26:00,
2013-04-25 03:31:00,37.0,33.0,30.09,WNW,292,0.0,0.0,85,0.00,,---,0.00,VWS V14.01,2013-04-25 10:31:00,
2013-04-25 03:36:00,36.9,32.8,30.09,WNW,292,0.0,0.0,85,0.00,,---,0.00,VWS V14.01,2013-04-25 10:36:00,
2013-04-25 03:41:00,36.9,32.8,30.09,WNW,292,0.0,0.0,85,0.00,,---,0.00,VWS V14.01,2013-04-25 10:41:00,
2013-04-25 03:46:00,37.0,33.2,30.09,WNW,292,0.0,0.0,86,0.00,,---,0.00,VWS V14.01,2013-04-25 10:46:00,
2013-04-25 03:51:00,36.7,32.9,30.09,WNW,292,0.0,0.0,86,0.00,,---,0.00,VWS V14.01,2013-04-25 10:51:00,
2013-04-25 03:56:00,36.5,32.7,30.09,WNW,292,0.0,0.0,86,0.00,,---,0.00,VWS V14.01,2013-04-25 10:56:00,
2013-04-25 04:01:00,36.3,32.5,30.09,WNW,292,0.0,0.0,86,0.00,,---,0.00,VWS V14.01,2013-04-25 11:01:00,
2013-04-25 04:06:00,36.5,32.7,30.12,WNW,292,0.0,0.0,86,0.00,,---,0.00,VWS V14.01,2013-04-25 11:06:00,
2013-04-25 04:11:00,36.3,32.5,30.12,WNW,292,0.0,0.0,86,0.00,,---,0.00,VWS V14.01,2013-04-25 11:11:00,
2013-04-25 04:16:00,36.3,32.5,30.12,WNW,292,0.0,0.0,86,0.00,,---,0.00,VWS V14.01,2013-04-25 11:16:00,
2013-04-25 04:21:00,36.1,32.7,30.12,WNW,292,0.0,0.0,87,0.00,,---,0.00,VWS V14.01,2013-04-25 11:21:00,
2013-04-25 04:27:00,36.1,32.4,30.12,WNW,292,0.0,0.0,86,0.00,,---,0.00,VWS V14.01,2013-04-25 11:27:00,
2013-04-25 04:32:00,36.1,32.4,30.12,WNW,292,0.0,0.0,86,0.00,,---,0.00,VWS V14.01,2013-04-25 11:32:00,
2013-04-25 04:37:00,36.1,32.7,30.09,WNW,292,0.0,0.0,87,0.00,,---,0.00,VWS V14.01,2013-04-25 11:37:00,
2013-04-25 04:42:00,36.0,32.5,30.09,WNW,292,0.0,0.0,87,0.00,,---,0.00,VWS V14.01,2013-04-25 11:42:00,
2013-04-25 04:47:00,36.0,32.5,30.09,WNW,292,0.0,0.0,87,0.00,,---,0.00,VWS V14.01,2013-04-25 11:47:00,
2013-04-25 04:52:00,36.0,32.5,30.12,WNW,292,0.0,0.0,87,0.00,,---,0.00,VWS V14.01,2013-04-25 11:52:00,
2013-04-25 04:57:00,36.0,32.5,30.12,WNW,292,0.0,0.0,87,0.00,,---,0.00,VWS V14.01,2013-04-25 11:57:00,
2013-04-25 05:02:00,35.8,32.3,30.12,WNW,292,0.0,0.0,87,0.00,,---,0.00,VWS V14.01,2013-04-25 12:02:00,
2013-04-25 05:07:00,36.0,32.5,30.12,WNW,292,0.0,0.0,87,0.00,,---,0.00,VWS V14.01,2013-04-25 12:07:00,
2013-04-25 05:12:00,35.8,32.6,30.12,WNW,292,0.0,0.0,88,0.00,,---,0.00,VWS V14.01,2013-04-25 12:12:00,
2013-04-25 05:17:00,35.6,32.4,30.12,WNW,292,0.0,0.0,88,0.00,,---,0.00,VWS V14.01,2013-04-25 12:17:00,
2013-04-25 05:22:00,35.6,32.4,30.12,WNW,292,0.0,0.0,88,0.00,,---,0.00,VWS V14.01,2013-04-25 12:22:00,
2013-04-25 05:27:00,35.4,32.2,30.12,WNW,292,0.0,0.0,88,0.00,,---,0.00,VWS V14.01,2013-04-25 12:27:00,
2013-04-25 05:32:00,35.2,32.0,30.12,WNW,292,0.0,0.0,88,0.00,,---,0.00,VWS V14.01,2013-04-25 12:32:00,
2013-04-25 05:37:00,35.2,32.0,30.12,WNW,292,0.0,0.0,88,0.00,,---,0.00,VWS V14.01,2013-04-25 12:37:00,
2013-04-25 05:42:00,35.1,31.9,30.12,WNW,292,0.0,0.0,88,0.00,,---,0.00,VWS V14.01,2013-04-25 12:42:00,
2013-04-25 05:47:00,35.1,32.2,30.12,WNW,292,0.0,0.0,89,0.00,,---,0.00,VWS V14.01,2013-04-25 12:47:00,
2013-04-25 05:52:00,34.9,32.0,30.12,WNW,292,0.0,0.0,89,0.00,,---,0.00,VWS V14.01,2013-04-25 12:52:00,
2013-04-25 05:57:00,34.9,32.0,30.12,WNW,292,0.0,0.0,89,0.00,,---,0.00,VWS V14.01,2013-04-25 12:57:00,
2013-04-25 06:02:00,34.9,32.0,30.12,WNW,292,0.0,0.0,89,0.00,,---,0.00,VWS V14.01,2013-04-25 13:02:00,
2013-04-25 06:07:00,34.7,31.8,30.09,WNW,292,0.0,0.0,89,0.00,,---,0.00,VWS V14.01,2013-04-25 13:07:00,
2013-04-25 06:12:00,34.5,31.6,30.09,WNW,292,0.0,0.0,89,0.00,,---,0.00,VWS V14.01,2013-04-25 13:12:00,
2013-04-25 06:17:00,34.5,31.6,30.09,WNW,292,0.0,0.0,89,0.00,,---,0.00,VWS V14.01,2013-04-25 13:17:00,
2013-04-25 06:23:00,34.5,31.6,30.12,WNW,292,0.0,0.0,89,0.00,,---,0.00,VWS V14.01,2013-04-25 13:23:00,
2013-04-25 06:28:00,34.5,31.6,30.12,WNW,292,0.0,0.0,89,0.00,,---,0.00,VWS V14.01,2013-04-25 13:28:00,
2013-04-25 06:33:00,34.5,31.9,30.12,WNW,292,0.0,0.0,90,0.00,,---,0.00,VWS V14.01,2013-04-25 13:33:00,
2013-04-25 06:38:00,34.7,31.8,30.12,WNW,292,0.0,0.0,89,0.00,,---,0.00,VWS V14.01,2013-04-25 13:38:00,
2013-04-25 06:43:00,34.9,32.2,30.12,WNW,292,0.0,0.0,90,0.00,,---,0.00,VWS V14.01,2013-04-25 13:43:00,
2013-04-25 06:48:00,34.9,32.2,30.12,WNW,292,0.0,0.0,90,0.00,,---,0.00,VWS V14.01,2013-04-25 13:48:00,
2013-04-25 06:53:00,35.1,32.4,30.12,WNW,292,0.0,0.0,90,0.00,,---,0.00,VWS V14.01,2013-04-25 13:53:00,
2013-04-25 06:58:00,35.4,32.8,30.12,WNW,292,0.0,0.0,90,0.00,,---,0.00,VWS V14.01,2013-04-25 13:58:00,
2013-04-25 07:03:00,35.8,33.4,30.12,WNW,292,0.0,0.0,91,0.00,,---,0.00,VWS V14.01,2013-04-25 14:03:00,
2013-04-25 07:08:00,36.0,33.6,30.12,WNW,292,0.0,0.0,91,0.00,,---,0.00,VWS V14.01,2013-04-25 14:08:00,
2013-04-25 07:13:00,36.7,34.3,30.12,WNW,292,0.0,0.0,91,0.00,,---,0.00,VWS V14.01,2013-04-25 14:13:00,
2013-04-25 07:18:00,37.2,35.1,30.12,WNW,292,0.0,0.0,92,0.00,,---,0.00,VWS V14.01,2013-04-25 14:18:00,
2013-04-25 07:23:00,38.1,36.0,30.12,WNW,292,0.0,0.0,92,0.00,,---,0.00,VWS V14.01,2013-04-25 14:23:00,
2013-04-25 07:28:00,38.7,36.5,30.12,WSW,248,0.0,0.0,92,0.00,,---,0.00,VWS V14.01,2013-04-25 14:28:00,
2013-04-25 07:33:00,39.4,37.0,30.12,WSW,248,0.0,0.0,91,0.00,,---,0.00,VWS V14.01,2013-04-25 14:33:00,
2013-04-25 07:38:00,40.1,37.7,30.12,WSW,248,0.0,0.0,91,0.00,,---,0.00,VWS V14.01,2013-04-25 14:38:00,
2013-04-25 07:43:00,40.6,38.2,30.12,WSW,248,0.0,0.0,91,0.00,,---,0.00,VWS V14.01,2013-04-25 14:43:00,
2013-04-25 07:48:00,41.4,38.7,30.12,WSW,248,0.0,0.0,90,0.00,,---,0.00,VWS V14.01,2013-04-25 14:48:00,
2013-04-25 07:53:00,42.1,39.4,30.12,WSW,248,0.0,0.0,90,0.00,,---,0.00,VWS V14.01,2013-04-25 14:53:00,
2013-04-25 07:58:00,43.0,39.7,30.12,WSW,248,0.0,0.0,88,0.00,,---,0.00,VWS V14.01,2013-04-25 14:58:00,
2013-04-25 08:03:00,43.9,40.6,30.12,SSE,158,0.0,0.0,88,0.00,,---,0.00,VWS V14.01,2013-04-25 15:03:00,
2013-04-25 08:08:00,44.4,41.1,30.15,SW,225,0.0,0.0,88,0.00,,---,0.00,VWS V14.01,2013-04-25 15:08:00,
2013-04-25 08:13:00,46.2,42.9,30.15,ESE,112,0.0,0.0,88,0.00,,---,0.00,VWS V14.01,2013-04-25 15:13:00,
2013-04-25 08:18:00,47.8,44.5,30.15,NE,45,0.0,0.0,88,0.00,,---,0.00,VWS V14.01,2013-04-25 15:18:00,
2013-04-25 08:23:00,49.6,45.6,30.15,South,180,0.0,0.0,86,0.00,,---,0.00,VWS V14.01,2013-04-25 15:23:00,
2013-04-25 08:28:00,51.4,46.5,30.15,South,180,0.0,0.0,83,0.00,,---,0.00,VWS V14.01,2013-04-25 15:28:00,
2013-04-25 08:33:00,52.7,45.7,30.15,West,270,0.0,0.0,77,0.00,,---,0.00,VWS V14.01,2013-04-25 15:33:00,
2013-04-25 08:38:00,53.4,45.0,30.15,West,270,0.0,0.0,73,0.00,,---,0.00,VWS V14.01,2013-04-25 15:38:00,
2013-04-25 08:43:00,55.4,46.2,30.15,South,180,0.0,0.0,71,0.00,,---,0.00,VWS V14.01,2013-04-25 15:43:00,
2013-04-25 08:48:00,57.6,46.7,30.15,NE,45,0.0,0.0,67,0.00,,---,0.00,VWS V14.01,2013-04-25 15:48:00,
2013-04-25 08:53:00,58.6,45.7,30.15,ESE,112,0.0,0.0,62,0.00,,---,0.00,VWS V14.01,2013-04-25 15:53:00,
2013-04-25 08:58:00,58.8,42.2,30.15,SSW,202,0.0,0.0,54,0.00,,---,0.00,VWS V14.01,2013-04-25 15:58:00,
2013-04-25 09:03:00,60.8,43.6,30.15,SSW,202,0.0,0.0,53,0.00,,---,0.00,VWS V14.01,2013-04-25 16:03:00,
2013-04-25 09:08:00,62.1,44.2,30.15,SE,135,0.0,1.3,52,0.00,,---,0.00,VWS V14.01,2013-04-25 16:08:00,
2013-04-25 09:13:00,63.1,42.6,30.15,South,180,0.0,0.0,47,0.00,,---,0.00,VWS V14.01,2013-04-25 16:13:00,
2013-04-25 09:18:00,64.8,43.0,30.15,ESE,112,0.0,0.9,45,0.00,,---,0.00,VWS V14.01,2013-04-25 16:18:00,
2013-04-25 09:23:00,64.4,40.8,30.15,ENE,68,1.3,1.3,42,0.00,,---,0.00,VWS V14.01,2013-04-25 16:23:00,
2013-04-25 09:28:00,64.9,38.1,30.15,ENE,68,0.0,1.3,37,0.00,,---,0.00,VWS V14.01,2013-04-25 16:28:00,
2013-04-25 09:33:00,65.5,37.8,30.15,ENE,68,1.1,2.7,36,0.00,,---,0.00,VWS V14.01,2013-04-25 16:33:00,
2013-04-25 09:38:00,65.1,37.5,30.15,ENE,68,1.1,2.2,36,0.00,,---,0.00,VWS V14.01,2013-04-25 16:38:00,
2013-04-25 09:43:00,66.2,39.2,30.15,ENE,68,1.6,1.6,37,0.00,,---,0.00,VWS V14.01,2013-04-25 16:43:00,
2013-04-25 09:48:00,67.3,40.1,30.15,SSE,158,1.3,1.3,37,0.00,,---,0.00,VWS V14.01,2013-04-25 16:48:00,
2013-04-25 09:53:00,66.9,38.4,30.15,NE,45,2.2,2.5,35,0.00,,---,0.00,VWS V14.01,2013-04-25 16:53:00,
2013-04-25 09:58:00,66.9,38.4,30.15,SE,135,0.0,1.6,35,0.00,,---,0.00,VWS V14.01,2013-04-25 16:58:00,
2013-04-25 10:03:00,68.2,39.5,30.15,NNE,22,0.0,0.0,35,0.00,,---,0.00,VWS V14.01,2013-04-25 17:03:00,
2013-04-25 10:08:00,69.1,40.3,30.15,South,180,1.1,1.6,35,0.00,,---,0.00,VWS V14.01,2013-04-25 17:08:00,
2013-04-25 10:13:00,71.1,40.5,30.15,SE,135,0.0,0.0,33,0.00,,---,0.00,VWS V14.01,2013-04-25 17:13:00,
2013-04-25 10:18:00,71.6,40.2,30.15,South,180,0.9,1.3,32,0.00,,---,0.00,VWS V14.01,2013-04-25 17:18:00,
2013-04-25 10:23:00,72.1,40.7,30.15,SSW,202,0.0,0.0,32,0.00,,---,0.00,VWS V14.01,2013-04-25 17:23:00,
2013-04-25 10:28:00,72.5,41.0,30.15,WNW,292,0.0,2.0,32,0.00,,---,0.00,VWS V14.01,2013-04-25 17:28:00,
2013-04-25 10:33:00,72.5,38.5,30.15,NNW,338,0.0,3.1,29,0.00,,---,0.00,VWS V14.01,2013-04-25 17:33:00,
2013-04-25 10:38:00,73.6,40.3,30.15,East,90,2.0,2.0,30,0.00,,---,0.00,VWS V14.01,2013-04-25 17:38:00,
2013-04-25 10:43:00,73.0,38.0,30.15,WNW,292,0.9,2.5,28,0.00,,---,0.00,VWS V14.01,2013-04-25 17:43:00,
2013-04-25 10:48:00,73.0,38.0,30.15,North,0,2.7,2.7,28,0.00,,---,0.00,VWS V14.01,2013-04-25 17:48:00,
2013-04-25 10:53:00,73.8,37.7,30.15,SSE,158,0.0,1.1,27,0.00,,---,0.00,VWS V14.01,2013-04-25 17:53:00,
2013-04-25 10:58:00,74.3,38.2,30.15,NE,45,1.6,1.6,27,0.00,,---,0.00,VWS V14.01,2013-04-25 17:58:00,
2013-04-25 11:03:00,74.8,36.7,30.15,ENE,68,3.4,4.3,25,0.00,,---,0.00,VWS V14.01,2013-04-25 18:03:00,
2013-04-25 11:08:00,73.6,34.6,30.15,SW,225,1.3,2.7,24,0.00,,---,0.00,VWS V14.01,2013-04-25 18:08:00,
2013-04-25 11:13:00,76.5,40.0,30.15,South,180,0.0,0.9,27,0.00,,---,0.00,VWS V14.01,2013-04-25 18:13:00,
2013-04-25 11:18:00,77.0,37.5,30.15,NNE,22,0.0,0.0,24,0.00,,---,0.00,VWS V14.01,2013-04-25 18:18:00,
2013-04-25 11:23:00,76.8,36.2,30.15,SE,135,2.2,3.6,23,0.00,,---,0.00,VWS V14.01,2013-04-25 18:23:00,
2013-04-25 11:28:00,77.7,38.1,30.15,SE,135,0.0,1.3,24,0.00,,---,0.00,VWS V14.01,2013-04-25 18:28:00,
2013-04-25 11:33:00,77.5,34.6,30.15,NNE,22,2.2,2.7,21,0.00,,---,0.00,VWS V14.01,2013-04-25 18:33:00,
2013-04-25 11:38:00,78.3,36.3,30.12,SW,225,0.0,0.0,22,0.00,,---,0.00,VWS V14.01,2013-04-25 18:38:00,
2013-04-25 11:43:00,78.6,35.5,30.12,West,270,1.1,2.0,21,0.00,,---,0.00,VWS V14.01,2013-04-25 18:43:00,
2013-04-25 11:48:00,77.4,34.4,30.12,WNW,292,0.9,1.6,21,0.00,,---,0.00,VWS V14.01,2013-04-25 18:48:00,
2013-04-25 11:53:00,78.6,35.5,30.12,North,0,1.1,2.2,21,0.00,,---,0.00,VWS V14.01,2013-04-25 18:53:00,
2013-04-25 11:58:00,77.9,34.9,30.12,West,270,2.0,3.4,21,0.00,,---,0.00,VWS V14.01,2013-04-25 18:58:00,
2013-04-25 12:03:00,79.2,37.1,30.12,West,270,2.0,3.6,22,0.00,,---,0.00,VWS V14.01,2013-04-25 19:03:00,
2013-04-25 12:08:00,79.9,36.5,30.12,NE,45,2.5,3.6,21,0.00,,---,0.00,VWS V14.01,2013-04-25 19:08:00,
2013-04-25 12:13:00,80.2,36.8,30.12,NNE,22,3.1,3.1,21,0.00,,---,0.00,VWS V14.01,2013-04-25 19:13:00,
2013-04-25 12:18:00,79.0,35.8,30.12,West,270,1.3,3.6,21,0.00,,---,0.00,VWS V14.01,2013-04-25 19:18:00,
2013-04-25 12:23:00,80.6,35.9,30.12,WSW,248,1.6,2.5,20,0.00,,---,0.00,VWS V14.01,2013-04-25 19:23:00,
2013-04-25 12:28:00,80.6,35.9,30.12,WNW,292,0.0,1.6,20,0.00,,---,0.00,VWS V14.01,2013-04-25 19:28:00,
2013-04-25 12:33:00,81.3,37.7,30.12,North,0,2.9,2.9,21,0.00,,---,0.00,VWS V14.01,2013-04-25 19:33:00,
2013-04-25 12:38:00,81.5,36.6,30.12,North,0,1.6,3.4,20,0.00,,---,0.00,VWS V14.01,2013-04-25 19:38:00,
2013-04-25 12:43:00,81.1,37.5,30.12,NNW,338,0.0,1.6,21,0.00,,---,0.00,VWS V14.01,2013-04-25 19:43:00,
2013-04-25 12:48:00,81.5,37.8,30.12,WNW,292,2.5,2.7,21,0.00,,---,0.00,VWS V14.01,2013-04-25 19:48:00,
2013-04-25 12:53:00,80.1,36.7,30.12,ESE,112,3.6,4.3,21,0.00,,---,0.00,VWS V14.01,2013-04-25 19:53:00,
2013-04-25 12:58:00,80.2,36.8,30.12,West,270,1.3,1.3,21,0.00,,---,0.00,VWS V14.01,2013-04-25 19:58:00,
2013-04-25 13:03:00,80.4,37.0,30.12,North,0,2.2,4.3,21,0.00,,---,0.00,VWS V14.01,2013-04-25 20:03:00,
2013-04-25 13:08:00,79.7,36.3,30.12,NNE,22,3.1,3.1,21,0.00,,---,0.00,VWS V14.01,2013-04-25 20:08:00,
2013-04-25 13:13:00,79.2,37.1,30.12,West,270,1.3,1.6,22,0.00,,---,0.00,VWS V14.01,2013-04-25 20:13:00,
2013-04-25 13:18:00,78.4,35.3,30.12,WSW,248,1.6,6.0,21,0.00,,---,0.00,VWS V14.01,2013-04-25 20:18:00,
2013-04-25 13:23:00,78.4,35.3,30.12,NNE,22,0.0,2.2,21,0.00,,---,0.00,VWS V14.01,2013-04-25 20:23:00,
2013-04-25 13:28:00,79.3,37.2,30.12,WSW,248,1.3,1.6,22,0.00,,---,0.00,VWS V14.01,2013-04-25 20:28:00,
2013-04-25 13:33:00,79.9,36.5,30.12,East,90,0.0,2.5,21,0.00,,---,0.00,VWS V14.01,2013-04-25 20:33:00,
2013-04-25 13:38:00,79.5,36.2,30.12,WSW,248,3.6,3.6,21,0.00,,---,0.00,VWS V14.01,2013-04-25 20:38:00,
2013-04-25 13:43:00,78.3,36.3,30.12,South,180,0.0,0.0,22,0.00,,---,0.00,VWS V14.01,2013-04-25 20:43:00,
2013-04-25 13:48:00,78.4,36.5,30.12,West,270,0.0,1.1,22,0.00,,---,0.00,VWS V14.01,2013-04-25 20:48:00,
2013-04-25 13:53:00,78.1,36.2,30.09,West,270,1.6,1.6,22,0.00,,---,0.00,VWS V14.01,2013-04-25 20:53:00,
2013-04-25 13:58:00,77.9,36.0,30.09,West,270,0.9,0.9,22,0.00,,---,0.00,VWS V14.01,2013-04-25 20:58:00,
2013-04-25 14:03:00,78.3,37.5,30.09,NW,315,0.0,1.1,23,0.00,,---,0.00,VWS V14.01,2013-04-25 21:03:00,
2013-04-25 14:08:00,79.2,38.2,30.09,West,270,2.0,3.6,23,0.00,,---,0.00,VWS V14.01,2013-04-25 21:08:00,
2013-04-25 14:13:00,79.3,37.2,30.09,West,270,2.5,3.4,22,0.00,,---,0.00,VWS V14.01,2013-04-25 21:13:00,
2013-04-25 14:18:00,79.7,38.7,30.09,NNE,22,0.0,2.0,23,0.00,,---,0.00,VWS V14.01,2013-04-25 21:18:00,
2013-04-25 14:23:00,79.9,37.7,30.09,NW,315,0.0,1.6,22,0.00,,---,0.00,VWS V14.01,2013-04-25 21:23:00,
2013-04-25 14:28:00,79.3,36.0,30.09,West,270,4.0,4.0,21,0.00,,---,0.00,VWS V14.01,2013-04-25 21:28:00,
2013-04-25 14:33:00,78.6,36.6,30.09,NE,45,1.3,1.3,22,0.00,,---,0.00,VWS V14.01,2013-04-25 21:33:00,
2013-04-25 14:38:00,79.2,37.1,30.09,NNE,22,0.9,2.0,22,0.00,,---,0.00,VWS V14.01,2013-04-25 21:38:00,
2013-04-25 14:43:00,78.8,36.8,30.09,ENE,68,3.4,6.3,22,0.00,,---,0.00,VWS V14.01,2013-04-25 21:43:00,
2013-04-25 14:48:00,78.6,36.6,30.09,WSW,248,2.7,3.8,22,0.00,,---,0.00,VWS V14.01,2013-04-25 21:48:00,
2013-04-25 14:53:00,78.6,37.8,30.09,NNW,338,1.1,2.5,23,0.00,,---,0.00,VWS V14.01,2013-04-25 21:53:00,
2013-04-25 14:58:00,79.3,37.2,30.09,WNW,292,2.2,2.7,22,0.00,,---,0.00,VWS V14.01,2013-04-25 21:58:00,
2013-04-25 15:03:00,77.7,35.9,30.09,WSW,248,1.3,3.8,22,0.00,,---,0.00,VWS V14.01,2013-04-25 22:03:00,
2013-04-25 15:08:00,77.4,36.7,30.12,North,0,0.0,1.1,23,0.00,,---,0.00,VWS V14.01,2013-04-25 22:08:00,
2013-04-25 15:13:00,76.8,36.2,30.12,North,0,1.1,4.3,23,0.00,,---,0.00,VWS V14.01,2013-04-25 22:13:00,
2013-04-25 15:18:00,76.5,36.0,30.12,NW,315,0.0,3.4,23,0.00,,---,0.00,VWS V14.01,2013-04-25 22:18:00,
2013-04-25 15:23:00,77.0,37.5,30.09,WSW,248,0.0,2.9,24,0.00,,---,0.00,VWS V14.01,2013-04-25 22:23:00,
2013-04-25 15:28:00,77.0,37.5,30.09,West,270,2.0,2.5,24,0.00,,---,0.00,VWS V14.01,2013-04-25 22:28:00,
2013-04-25 15:33:00,77.2,35.4,30.09,West,270,3.6,4.3,22,0.00,,---,0.00,VWS V14.01,2013-04-25 22:33:00,
2013-04-25 15:38:00,76.8,36.2,30.12,West,270,2.2,2.2,23,0.00,,---,0.00,VWS V14.01,2013-04-25 22:38:00,
2013-04-25 15:43:00,76.8,36.2,30.12,WNW,292,0.9,2.9,23,0.00,,---,0.00,VWS V14.01,2013-04-25 22:43:00,
2013-04-25 15:48:00,77.4,36.7,30.12,West,270,2.9,2.9,23,0.00,,---,0.00,VWS V14.01,2013-04-25 22:48:00,
2013-04-25 15:53:00,77.4,35.6,30.09,West,270,2.2,3.8,22,0.00,,---,0.00,VWS V14.01,2013-04-25 22:53:00,
2013-04-25 15:58:00,77.5,36.8,30.09,West,270,0.0,2.7,23,0.00,,---,0.00,VWS V14.01,2013-04-25 22:58:00,
2013-04-25 16:03:00,77.9,37.2,30.09,NE,45,1.1,1.1,23,0.00,,---,0.00,VWS V14.01,2013-04-25 23:03:00,
2013-04-25 16:08:00,77.9,36.0,30.09,West,270,4.7,4.7,22,0.00,,---,0.00,VWS V14.01,2013-04-25 23:08:00,
2013-04-25 16:13:00,77.5,35.7,30.09,West,270,2.9,3.1,22,0.00,,---,0.00,VWS V14.01,2013-04-25 23:13:00,
2013-04-25 16:18:00,77.5,36.8,30.09,SE,135,0.9,2.2,23,0.00,,---,0.00,VWS V14.01,2013-04-25 23:18:00,
2013-04-25 16:23:00,78.1,36.2,30.09,SSE,158,0.0,1.6,22,0.00,,---,0.00,VWS V14.01,2013-04-25 23:23:00,
2013-04-25 16:28:00,78.3,37.5,30.09,West,270,0.0,2.0,23,0.00,,---,0.00,VWS V14.01,2013-04-25 23:28:00,
2013-04-25 16:33:00,77.9,37.2,30.09,North,0,0.0,0.0,23,0.00,,---,0.00,VWS V14.01,2013-04-25 23:33:00,
2013-04-25 16:38:00,78.3,37.5,30.09,West,270,0.0,0.0,23,0.00,,---,0.00,VWS V14.01,2013-04-25 23:38:00,
2013-04-25 16:43:00,77.5,36.8,30.09,North,0,3.6,3.6,23,0.00,,---,0.00,VWS V14.01,2013-04-25 23:43:00,
2013-04-25 16:48:00,77.5,36.8,30.09,West,270,2.5,2.5,23,0.00,,---,0.00,VWS V14.01,2013-04-25 23:48:00,
2013-04-25 16:53:00,77.2,36.5,30.09,West,270,1.3,1.3,23,0.00,,---,0.00,VWS V14.01,2013-04-25 23:53:00,
2013-04-25 16:58:00,75.9,36.6,30.09,West,270,0.0,2.0,24,0.00,,---,0.00,VWS V14.01,2013-04-25 23:58:00,
2013-04-25 17:03:00,75.9,36.6,30.12,West,270,2.7,2.7,24,0.00,,---,0.00,VWS V14.01,2013-04-26 00:03:00,
2013-04-25 17:08:00,75.2,36.0,30.12,West,270,3.1,3.1,24,0.00,,---,0.00,VWS V14.01,2013-04-26 00:08:00,
2013-04-25 17:13:00,74.1,36.1,30.12,West,270,2.7,2.9,25,0.00,,---,0.00,VWS V14.01,2013-04-26 00:13:00,
2013-04-25 17:18:00,72.9,35.0,30.09,West,270,0.9,1.6,25,0.00,,---,0.00,VWS V14.01,2013-04-26 00:18:00,
2013-04-25 17:23:00,72.1,35.4,30.09,West,270,0.0,1.6,26,0.00,,---,0.00,VWS V14.01,2013-04-26 00:23:00,
2013-04-25 17:28:00,71.4,36.7,30.09,WNW,292,1.3,2.7,28,0.00,,---,0.00,VWS V14.01,2013-04-26 00:28:00,
2013-04-25 17:34:00,71.2,37.4,30.12,NW,315,0.0,1.1,29,0.00,,---,0.00,VWS V14.01,2013-04-26 00:34:00,
2013-04-25 17:39:00,70.9,37.9,30.12,West,270,2.7,2.7,30,0.00,,---,0.00,VWS V14.01,2013-04-26 00:39:00,
2013-04-25 17:44:00,70.2,38.1,30.12,WNW,292,0.0,1.1,31,0.00,,---,0.00,VWS V14.01,2013-04-26 00:44:00,
2013-04-25 17:49:00,69.6,38.5,30.12,WSW,248,2.7,4.3,32,0.00,,---,0.00,VWS V14.01,2013-04-26 00:49:00,
2013-04-25 17:54:00,68.9,37.8,30.12,WNW,292,2.5,2.7,32,0.00,,---,0.00,VWS V14.01,2013-04-26 00:54:00,
2013-04-25 17:59:00,68.5,38.3,30.12,West,270,0.0,2.9,33,0.00,,---,0.00,VWS V14.01,2013-04-26 00:59:00,
2013-04-25 18:04:00,68.0,37.8,30.12,West,270,2.0,2.5,33,0.00,,---,0.00,VWS V14.01,2013-04-26 01:04:00,
2013-04-25 18:09:00,67.6,38.3,30.12,West,270,1.1,2.7,34,0.00,,---,0.00,VWS V14.01,2013-04-26 01:09:00,
2013-04-25 18:14:00,67.1,38.6,30.12,West,270,3.1,3.1,35,0.00,,---,0.00,VWS V14.01,2013-04-26 01:14:00,
2013-04-25 18:19:00,66.7,39.0,30.12,SW,225,2.7,2.7,36,0.00,,---,0.00,VWS V14.01,2013-04-26 01:19:00,
2013-04-25 18:24:00,66.2,38.5,30.12,West,270,0.0,2.5,36,0.00,,---,0.00,VWS V14.01,2013-04-26 01:24:00,
2013-04-25 18:29:00,66.0,39.0,30.12,WNW,292,0.0,2.2,37,0.00,,---,0.00,VWS V14.01,2013-04-26 01:29:00,
2013-04-25 18:34:00,65.8,39.5,30.12,West,270,0.0,2.0,38,0.00,,---,0.00,VWS V14.01,2013-04-26 01:34:00,
2013-04-25 18:39:00,65.7,38.7,30.12,West,270,0.0,0.0,37,0.00,,---,0.00,VWS V14.01,2013-04-26 01:39:00,
2013-04-25 18:44:00,65.5,38.5,30.12,SW,225,0.0,0.0,37,0.00,,---,0.00,VWS V14.01,2013-04-26 01:44:00,
2013-04-25 18:49:00,65.3,38.4,30.15,West,270,1.3,1.3,37,0.00,,---,0.00,VWS V14.01,2013-04-26 01:49:00,
2013-04-25 18:54:00,65.1,38.2,30.15,NW,315,0.0,0.0,37,0.00,,---,0.00,VWS V14.01,2013-04-26 01:54:00,
2013-04-25 18:59:00,64.9,38.1,30.15,West,270,0.0,0.0,37,0.00,,---,0.00,VWS V14.01,2013-04-26 01:59:00,
2013-04-25 19:04:00,64.6,37.8,30.15,NW,315,3.6,3.6,37,0.00,,---,0.00,VWS V14.01,2013-04-26 02:04:00,
2013-04-25 19:09:00,64.4,37.6,30.15,West,270,2.7,4.0,37,0.00,,---,0.00,VWS V14.01,2013-04-26 02:09:00,
2013-04-25 19:14:00,64.0,37.3,30.15,NNW,338,0.0,0.0,37,0.00,,---,0.00,VWS V14.01,2013-04-26 02:14:00,
2013-04-25 19:19:00,63.9,37.1,30.15,West,270,0.0,0.0,37,0.00,,---,0.00,VWS V14.01,2013-04-26 02:19:00,
2013-04-25 19:24:00,63.5,36.8,30.15,West,270,0.0,0.0,37,0.00,,---,0.00,VWS V14.01,2013-04-26 02:24:00,
2013-04-25 19:29:00,63.0,36.3,30.15,WNW,292,0.0,0.0,37,0.00,,---,0.00,VWS V14.01,2013-04-26 02:29:00,
2013-04-25 19:34:00,62.2,36.3,30.18,West,270,0.0,0.0,38,0.00,,---,0.00,VWS V14.01,2013-04-26 02:34:00,
2013-04-25 19:39:00,61.7,36.5,30.18,WSW,248,0.0,0.0,39,0.00,,---,0.00,VWS V14.01,2013-04-26 02:39:00,
2013-04-25 19:44:00,61.0,35.9,30.18,NW,315,0.0,0.0,39,0.00,,---,0.00,VWS V14.01,2013-04-26 02:44:00,
2013-04-25 19:49:00,60.1,35.7,30.15,WNW,292,0.0,0.0,40,0.00,,---,0.00,VWS V14.01,2013-04-26 02:49:00,
2013-04-25 19:54:00,59.5,35.2,30.15,WNW,292,0.0,0.0,40,0.00,,---,0.00,VWS V14.01,2013-04-26 02:54:00,
2013-04-25 19:59:00,58.8,35.8,30.15,WNW,292,0.0,0.0,42,0.00,,---,0.00,VWS V14.01,2013-04-26 02:59:00,
2013-04-25 20:05:00,58.3,35.9,30.15,WNW,292,0.0,0.0,43,0.00,,---,0.00,VWS V14.01,2013-04-26 03:05:00,
2013-04-25 20:10:00,57.7,36.0,30.15,WNW,292,0.0,0.0,44,0.00,,---,0.00,VWS V14.01,2013-04-26 03:10:00,
2013-04-25 20:15:00,57.2,36.1,30.15,WNW,292,0.0,0.0,45,0.00,,---,0.00,VWS V14.01,2013-04-26 03:15:00,
2013-04-25 20:20:00,56.7,35.6,30.15,NW,315,0.0,0.0,45,0.00,,---,0.00,VWS V14.01,2013-04-26 03:20:00,
2013-04-25 20:25:00,56.1,35.6,30.15,WNW,292,0.0,0.0,46,0.00,,---,0.00,VWS V14.01,2013-04-26 03:25:00,
2013-04-25 20:30:00,55.8,35.3,30.15,NW,315,0.0,0.0,46,0.00,,---,0.00,VWS V14.01,2013-04-26 03:30:00,
2013-04-25 20:35:00,55.2,35.4,30.15,NW,315,0.0,0.0,47,0.00,,---,0.00,VWS V14.01,2013-04-26 03:35:00,
2013-04-25 20:40:00,54.7,35.4,30.15,NW,315,0.0,0.0,48,0.00,,---,0.00,VWS V14.01,2013-04-26 03:40:00,
2013-04-25 20:45:00,54.3,35.1,30.15,NW,315,0.0,0.0,48,0.00,,---,0.00,VWS V14.01,2013-04-26 03:45:00,
2013-04-25 20:50:00,54.0,34.7,30.15,NW,315,0.0,0.0,48,0.00,,---,0.00,VWS V14.01,2013-04-26 03:50:00,
2013-04-25 20:55:00,53.6,34.9,30.15,NW,315,0.0,0.0,49,0.00,,---,0.00,VWS V14.01,2013-04-26 03:55:00,
2013-04-25 21:00:00,53.2,35.6,30.15,NW,315,0.0,0.0,51,0.00,,---,0.00,VWS V14.01,2013-04-26 04:00:00,
2013-04-25 21:01:00,53.2,35.6,30.15,NW,315,0.0,0.0,51,0.00,,---,0.00,VWS V14.01,2013-04-26 04:01:00,
2013-04-25 21:02:00,53.1,34.9,30.15,NW,315,0.0,0.0,50,0.00,,---,0.00,VWS V14.01,2013-04-26 04:02:00,
2013-04-25 21:04:00,53.1,35.4,30.18,NW,315,0.0,0.0,51,0.00,,---,0.00,VWS V14.01,2013-04-26 04:04:00,
2013-04-25 21:09:00,52.5,35.9,30.18,NW,315,0.0,0.0,53,0.00,,---,0.00,VWS V14.01,2013-04-26 04:09:00,
2013-04-25 21:14:00,52.2,35.6,30.18,NW,315,0.0,0.0,53,0.00,,---,0.00,VWS V14.01,2013-04-26 04:14:00,
2013-04-25 21:19:00,51.6,36.0,30.21,WNW,292,0.0,0.0,55,0.00,,---,0.00,VWS V14.01,2013-04-26 04:19:00,
2013-04-25 21:24:00,51.6,36.5,30.21,WNW,292,0.0,0.0,56,0.00,,---,0.00,VWS V14.01,2013-04-26 04:24:00,
2013-04-25 21:29:00,51.3,36.6,30.21,WNW,292,0.0,0.0,57,0.00,,---,0.00,VWS V14.01,2013-04-26 04:29:00,
2013-04-25 21:34:00,50.9,36.2,30.21,WNW,292,0.0,0.0,57,0.00,,---,0.00,VWS V14.01,2013-04-26 04:34:00,
2013-04-25 21:40:00,50.5,36.3,30.21,WNW,292,0.0,0.0,58,0.00,,---,0.00,VWS V14.01,2013-04-26 04:40:00,
2013-04-25 21:45:00,50.2,36.0,30.21,WNW,292,0.0,0.0,58,0.00,,---,0.00,VWS V14.01,2013-04-26 04:45:00,
2013-04-25 21:50:00,49.8,36.9,30.21,NW,315,0.0,0.0,61,0.00,,---,0.00,VWS V14.01,2013-04-26 04:50:00,
2013-04-25 21:55:00,49.5,36.6,30.21,NW,315,0.0,0.0,61,0.00,,---,0.00,VWS V14.01,2013-04-26 04:55:00,
2013-04-25 22:00:00,49.3,36.8,30.21,NW,315,0.0,0.0,62,0.00,,---,0.00,VWS V14.01,2013-04-26 05:00:00,
2013-04-25 22:05:00,48.7,36.7,30.21,NW,315,0.0,0.0,63,0.00,,---,0.00,VWS V14.01,2013-04-26 05:05:00,
2013-04-25 22:10:00,48.7,37.1,30.21,NW,315,0.0,0.0,64,0.00,,---,0.00,VWS V14.01,2013-04-26 05:10:00,
2013-04-25 22:15:00,48.6,37.0,30.21,NW,315,0.0,0.0,64,0.00,,---,0.00,VWS V14.01,2013-04-26 05:15:00,
2013-04-25 22:20:00,48.4,37.2,30.21,NW,315,0.0,0.0,65,0.00,,---,0.00,VWS V14.01,2013-04-26 05:20:00,
2013-04-25 22:25:00,48.2,38.2,30.21,NW,315,0.0,0.0,68,0.00,,---,0.00,VWS V14.01,2013-04-26 05:25:00,
2013-04-25 22:30:00,47.8,37.8,30.21,NW,315,0.0,0.0,68,0.00,,---,0.00,VWS V14.01,2013-04-26 05:30:00,
2013-04-25 22:35:00,47.7,38.0,30.21,NW,315,0.0,0.0,69,0.00,,---,0.00,VWS V14.01,2013-04-26 05:35:00,
2013-04-25 22:40:00,47.3,38.0,30.21,NW,315,0.0,0.0,70,0.00,,---,0.00,VWS V14.01,2013-04-26 05:40:00,
2013-04-25 22:45:00,46.9,38.0,30.21,NW,315,0.0,0.0,71,0.00,,---,0.00,VWS V14.01,2013-04-26 05:45:00,
2013-04-25 22:50:00,46.6,37.7,30.21,NW,315,0.0,0.0,71,0.00,,---,0.00,VWS V14.01,2013-04-26 05:50:00,
2013-04-25 22:55:00,46.4,37.5,30.21,NW,315,0.0,0.0,71,0.00,,---,0.00,VWS V14.01,2013-04-26 05:55:00,
2013-04-25 23:00:00,46.0,37.9,30.21,NW,315,0.0,0.0,73,0.00,,---,0.00,VWS V14.01,2013-04-26 06:00:00,
2013-04-25 23:06:00,45.9,37.7,30.21,NW,315,0.0,0.0,73,0.00,,---,0.00,VWS V14.01,2013-04-26 06:06:00,
2013-04-25 23:11:00,45.9,37.7,30.21,NW,315,0.0,0.0,73,0.00,,---,0.00,VWS V14.01,2013-04-26 06:11:00,
2013-04-25 23:16:00,45.5,37.7,30.21,NW,315,0.0,0.0,74,0.00,,---,0.00,VWS V14.01,2013-04-26 06:16:00,
2013-04-25 23:21:00,45.1,37.7,30.21,NW,315,0.0,0.0,75,0.00,,---,0.00,VWS V14.01,2013-04-26 06:21:00,
2013-04-25 23:26:00,45.1,37.4,30.21,NW,315,0.0,0.0,74,0.00,,---,0.00,VWS V14.01,2013-04-26 06:26:00,
2013-04-25 23:31:00,45.1,37.7,30.21,NW,315,0.0,0.0,75,0.00,,---,0.00,VWS V14.01,2013-04-26 06:31:00,
2013-04-25 23:36:00,45.0,37.9,30.24,NW,315,0.0,0.0,76,0.00,,---,0.00,VWS V14.01,2013-04-26 06:36:00,
2013-04-25 23:41:00,44.6,37.8,30.24,NW,315,0.0,0.0,77,0.00,,---,0.00,VWS V14.01,2013-04-26 06:41:00,
2013-04-25 23:46:00,44.2,37.8,30.24,NW,315,0.0,0.0,78,0.00,,---,0.00,VWS V14.01,2013-04-26 06:46:00,
2013-04-25 23:51:00,44.1,37.0,30.21,WNW,292,0.0,0.0,76,0.00,,---,0.00,VWS V14.01,2013-04-26 06:51:00,
2013-04-25 23:56:00,44.1,37.3,30.21,WNW,292,0.0,0.0,77,0.00,,---,0.00,VWS V14.01,2013-04-26 06:56:00,